EW8356 Weather Reports


time (UTC)temp
C
wind
direction
speed
KPH
gust
KPH
rain 1hr
cm
rain 24hr
cm
rain mn
cm
humidity
%
barometer
mb
20260507151548 21 164 0.0 3.2 0.00 0.03 0.03 47 1013.2
20260507151031 21 144 1.6 4.8 0.00 0.03 0.03 48 1013.2
20260507150531 21 116 0.0 4.8 0.00 0.03 0.03 49 1013.2
20260507150052 21 87 1.6 11.3 0.00 0.03 0.03 49 1013.3
20260507145531 21 156 3.2 11.3 0.00 0.03 0.03 49 1013.3
20260507145034 21 109 3.2 9.7 0.00 0.03 0.03 48 1013.3
20260507144552 21 97 3.2 6.4 0.00 0.03 0.03 48 1013.4
20260507144031 21 83 1.6 6.4 0.00 0.03 0.03 48 1013.4
20260507143530 21 0 1.6 6.4 0.00 0.03 0.03 48 1013.4
20260507143051 21 175 1.6 4.8 0.00 0.03 0.03 50 1013.4
20260507142531 21 194 0.0 4.8 0.00 0.03 0.03 49 1013.4
20260507142030 21 124 0.0 11.3 0.00 0.03 0.03 50 1013.5
20260507141548 21 156 4.8 11.3 0.00 0.03 0.03 50 1013.6
20260507141031 21 102 3.2 11.3 0.00 0.03 0.03 51 1013.7
20260507140531 21 121 3.2 11.3 0.00 0.03 0.03 50 1013.7
20260507135531 20 93 4.8 11.3 0.00 0.03 0.03 53 1013.8
20260507135031 21 80 4.8 11.3 0.00 0.03 0.03 52 1013.9
20260507134544 21 103 4.8 11.3 0.00 0.03 0.03 51 1014.0
20260507134031 21 90 3.2 6.4 0.00 0.03 0.03 52 1014.0
20260507133531 21 5 3.2 9.7 0.00 0.03 0.03 50 1014.0
20260507133058 21 0 3.2 9.7 0.00 0.03 0.03 51 1014.1
20260507132530 21 186 4.8 9.7 0.00 0.03 0.03 51 1014.2
20260507132034 20 12 1.6 9.7 0.00 0.03 0.03 55 1014.2
20260507131549 20 30 4.8 14.5 0.00 0.03 0.03 52 1014.3
20260507131031 20 36 6.4 14.5 0.00 0.03 0.03 52 1014.3
20260507130530 21 202 8.0 14.5 0.00 0.03 0.03 51 1014.4
20260507130103 20 27 6.4 14.5 0.00 0.03 0.03 56 1014.5
20260507125531 20 57 1.6 16.1 0.00 0.03 0.03 56 1014.4
20260507125031 20 201 9.7 17.7 0.00 0.03 0.03 55 1014.5
20260507124607 20 68 6.4 17.7 0.00 0.03 0.03 56 1014.6
20260507124034 20 5 11.3 17.7 0.00 0.03 0.03 57 1014.6
20260507123533 20 61 9.7 17.7 0.00 0.03 0.03 56 1014.5
20260507123045 20 196 6.4 22.5 0.00 0.03 0.03 57 1014.5
20260507122532 20 27 16.1 22.5 0.00 0.03 0.03 57 1014.5
20260507122032 20 23 11.3 22.5 0.00 0.03 0.03 58 1014.5
20260507121544 20 20 14.5 22.5 0.00 0.03 0.03 58 1014.5
20260507121032 20 15 8.0 17.7 0.00 0.03 0.03 58 1014.6
20260507120532 20 360 9.7 17.7 0.00 0.03 0.03 57 1014.6
20260507120041 19 19 4.8 16.1 0.00 0.03 0.03 56 1014.6
20260507115532 19 204 4.8 16.1 0.00 0.03 0.03 57 1014.6
20260507115033 19 186 9.7 16.1 0.00 0.03 0.03 57 1014.6
20260507114607 19 15 9.7 17.7 0.00 0.03 0.03 59 1014.6
20260507114034 19 188 11.3 17.7 0.00 0.03 0.03 58 1014.7
20260507113532 19 39 3.2 8.0 0.00 0.03 0.03 59 1014.7
20260507113052 19 38 1.6 9.7 0.00 0.03 0.03 59 1014.9
20260507112531 19 9 3.2 11.3 0.00 0.03 0.03 59 1014.8
20260507112032 19 23 3.2 11.3 0.00 0.03 0.03 59 1014.7
20260507111548 19 175 4.8 16.1 0.00 0.03 0.03 58 1014.8
20260507111031 19 191 8.0 16.1 0.00 0.03 0.03 58 1014.9
20260507110531 19 9 3.2 14.5 0.00 0.03 0.03 59 1014.8
20260507110048 19 47 4.8 14.5 0.00 0.03 0.03 59 1014.9
20260507105531 19 360 9.7 14.5 0.00 0.03 0.03 59 1014.9
20260507105032 20 179 4.8 12.9 0.00 0.03 0.03 58 1014.9
20260507104553 20 27 3.2 11.3 0.00 0.03 0.03 58 1014.9
20260507104032 20 165 0.0 11.3 0.00 0.03 0.03 57 1014.9
20260507103532 19 144 4.8 11.3 0.00 0.03 0.03 58 1015.1
20260507103049 19 180 3.2 11.3 0.00 0.03 0.03 59 1015.1
20260507102532 18 144 3.2 14.5 0.00 0.03 0.03 60 1015.1
20260507102032 18 158 8.0 14.5 0.00 0.03 0.03 60 1015.2
20260507101551 18 186 6.4 12.9 0.00 0.03 0.03 61 1015.2
20260507101034 18 194 4.8 12.9 0.00 0.03 0.03 63 1015.2
20260507100532 18 26 8.0 12.9 0.00 0.03 0.03 61 1015.3
20260507100049 18 79 1.6 9.7 0.00 0.03 0.03 62 1015.3
20260507095533 18 19 3.2 9.7 0.00 0.03 0.03 62 1015.2
20260507095032 18 86 4.8 9.7 0.00 0.03 0.03 61 1015.2
20260507094548 18 67 3.2 12.9 0.00 0.03 0.03 63 1015.2
20260507094031 17 22 4.8 12.9 0.00 0.03 0.03 63 1015.2
20260507093531 17 26 4.8 12.9 0.00 0.03 0.03 63 1015.3
20260507093046 17 201 4.8 12.9 0.00 0.03 0.03 63 1015.3
20260507092530 17 18 3.2 9.7 0.00 0.03 0.03 64 1015.2
20260507092031 17 13 3.2 9.7 0.00 0.03 0.03 64 1015.2
20260507091546 17 360 4.8 9.7 0.00 0.03 0.03 63 1015.3
20260507091030 17 202 4.8 8.0 0.00 0.03 0.03 64 1015.3
20260507090531 17 35 3.2 6.4 0.00 0.03 0.03 64 1015.3
20260507090041 17 11 1.6 8.0 0.00 0.03 0.03 64 1015.3
20260507085531 17 34 3.2 8.0 0.00 0.03 0.03 65 1015.3
20260507085031 17 5 3.2 6.4 0.00 0.03 0.03 66 1015.3
20260507084550 17 83 1.6 6.4 0.00 0.03 0.03 69 1015.2
20260507084031 17 98 1.6 6.4 0.00 0.03 0.03 70 1015.2
20260507083532 17 80 3.2 4.8 0.00 0.03 0.03 71 1015.3
20260507083049 16 150 0.0 4.8 0.00 0.03 0.03 73 1015.3
20260507082530 16 0 0.0 9.7 0.00 0.03 0.03 74 1015.4
20260507082030 16 116 1.6 11.3 0.00 0.03 0.03 75 1015.3
20260507081547 16 100 6.4 11.3 0.00 0.03 0.03 76 1015.3
20260507081032 15 78 3.2 11.3 0.00 0.03 0.03 79 1015.4
20260507080531 15 138 4.8 11.3 0.00 0.03 0.03 79 1015.5
20260507080045 15 105 4.8 14.5 0.00 0.03 0.03 79 1015.5
20260507075530 15 129 3.2 14.5 0.00 0.03 0.03 81 1015.4
20260507075033 14 105 9.7 14.5 0.00 0.03 0.03 81 1015.4
20260507074556 14 125 6.4 12.9 0.00 0.03 0.03 82 1015.4
20260507074030 14 111 3.2 12.9 0.00 0.03 0.03 83 1015.4
20260507073530 14 116 6.4 12.9 0.00 0.03 0.03 82 1015.4
20260507073048 13 117 4.8 11.3 0.00 0.03 0.03 81 1015.4
20260507072530 13 111 4.8 11.3 0.00 0.03 0.03 80 1015.3
20260507072031 13 90 3.2 6.4 0.00 0.03 0.03 80 1015.4
20260507071550 13 116 1.6 6.4 0.00 0.03 0.03 82 1015.4
20260507071030 13 90 3.2 6.4 0.00 0.03 0.03 83 1015.3
20260507070533 13 127 4.8 6.4 0.00 0.03 0.03 84 1015.4
20260507070106 12 112 4.8 6.4 0.00 0.03 0.03 85 1015.2
20260507065529 12 109 1.6 6.4 0.00 0.00 0.00 85 1015.1
20260507065030 12 118 3.2 8.0 0.00 0.00 0.00 86 1015.3
20260507064550 12 128 3.2 8.0 0.00 0.00 0.00 86 1015.2
20260507064030 12 138 3.2 6.4 0.00 0.00 0.00 86 1015.2
20260507063531 12 154 1.6 8.0 0.00 0.00 0.00 86 1015.2
20260507063056 12 140 3.2 12.9 0.00 0.00 0.00 85 1015.2
20260507062531 12 129 4.8 12.9 0.00 0.00 0.00 85 1015.2
20260507062031 12 145 3.2 9.7 0.00 0.00 0.00 86 1015.2
20260507061549 12 161 3.2 8.0 0.00 0.00 0.00 86 1015.3
20260507061032 12 156 1.6 4.8 0.00 0.00 0.00 86 1015.3
20260507060543 12 132 1.6 6.4 0.00 0.00 0.00 86 1015.2
20260507060050 12 136 3.2 6.4 0.00 0.00 0.00 87 1015.2
20260507055531 12 144 3.2 8.0 0.00 0.00 0.00 87 1015.2
20260507055032 12 137 1.6 8.0 0.00 0.00 0.00 88 1015.2
20260507054545 12 165 3.2 8.0 0.00 0.00 0.00 88 1015.1
20260507054031 12 169 3.2 8.0 0.00 0.00 0.00 88 1015.1
20260507053531 12 168 3.2 8.0 0.00 0.00 0.00 88 1015.1
20260507053046 13 158 3.2 8.0 0.00 0.00 0.00 88 1015.1
20260507052532 13 159 1.6 4.8 0.00 0.00 0.00 88 1015.1
20260507052032 12 0 1.6 4.8 0.00 0.00 0.00 88 1014.9
20260507051551 12 140 1.6 4.8 0.00 0.00 0.00 88 1014.9
20260507051031 12 142 1.6 3.2 0.00 0.00 0.00 88 1014.9
20260507050533 12 0 0.0 3.2 0.00 0.00 0.00 88 1014.8
20260507050048 12 182 0.0 3.2 0.00 0.00 0.00 88 1014.9
20260507045532 12 0 0.0 3.2 0.00 0.00 0.00 88 1014.8
20260507045032 12 22 1.6 3.2 0.00 0.00 0.00 88 1014.7
20260507044552 12 23 0.0 3.2 0.00 0.00 0.00 88 1014.6
20260507044032 12 0 0.0 3.2 0.00 0.00 0.00 88 1014.6
20260507043531 12 0 0.0 3.2 0.00 0.00 0.00 88 1014.6
20260507043049 12 12 0.0 3.2 0.00 0.00 0.00 88 1014.7
20260507042531 12 0 0.0 3.2 0.00 0.00 0.00 88 1014.6
20260507042033 12 0 0.0 4.8 0.00 0.00 0.00 88 1014.6
20260507041549 12 0 0.0 4.8 0.00 0.00 0.00 88 1014.5
20260507041033 12 12 1.6 4.8 0.00 0.00 0.00 87 1014.3
20260507040533 12 16 3.2 4.8 0.00 0.00 0.00 87 1014.2
20260507040049 12 49 0.0 4.8 0.00 0.00 0.00 87 1014.2
20260507035531 12 38 1.6 6.4 0.00 0.00 0.00 87 1014.2
20260507035032 12 11 1.6 6.4 0.00 0.00 0.00 87 1014.1
20260507034547 12 5 3.2 6.4 0.00 0.00 0.00 87 1014.1
20260507034031 13 25 1.6 6.4 0.00 0.00 0.00 87 1014.2
20260507033533 13 5 1.6 9.7 0.00 0.00 0.00 87 1014.1
20260507033048 13 198 4.8 9.7 0.00 0.00 0.00 87 1014.1
20260507032534 12 201 6.4 12.9 0.00 0.00 0.00 87 1014.1
20260507032032 12 360 6.4 12.9 0.00 0.00 0.00 87 1014.1
20260507031547 12 205 6.4 12.9 0.00 0.00 0.00 88 1014.0
20260507031032 13 205 9.7 12.9 0.00 0.00 0.00 88 1014.1
20260507030532 13 190 6.4 9.7 0.00 0.00 0.00 89 1014.1
20260507030050 13 205 1.6 4.8 0.00 0.00 0.00 89 1014.0
20260507025530 13 44 0.0 3.2 0.00 0.03 0.00 89 1013.9
20260507025032 13 0 1.6 12.9 0.00 0.03 0.00 89 1013.9
20260507024549 13 0 1.6 12.9 0.00 0.03 0.00 89 1013.9
20260507024032 13 173 6.4 12.9 0.00 0.00 0.00 89 1013.9
20260507023531 13 166 4.8 12.9 0.00 0.00 0.00 89 1014.0
20260507023047 13 154 6.4 14.5 0.00 0.00 0.00 89 1013.8
20260507022532 13 112 8.0 14.5 0.00 0.00 0.00 89 1013.8
20260507022032 14 102 4.8 12.9 0.00 0.00 0.00 89 1013.8
20260507021547 13 102 6.4 14.5 0.00 0.00 0.00 89 1013.8
20260507021034 14 101 8.0 14.5 0.00 0.00 0.00 88 1013.8
20260507020532 14 87 4.8 11.3 0.00 0.00 0.00 89 1013.7
20260507020046 14 114 1.6 6.4 0.00 0.00 0.00 88 1013.7
20260507015534 14 0 1.6 6.4 0.00 0.03 0.00 88 1013.8
20260507015032 14 144 1.6 9.7 0.00 0.03 0.00 88 1013.7
20260507014554 14 134 3.2 12.9 0.00 0.03 0.00 88 1013.6
20260507014033 14 106 4.8 14.5 0.00 0.03 0.00 88 1013.5
20260507013531 14 99 6.4 16.1 0.00 0.03 0.00 88 1013.5
20260507013101 14 101 8.0 17.7 0.00 0.03 0.00 87 1013.5
20260507012531 14 80 9.7 17.7 0.00 0.03 0.00 87 1013.5
20260507012032 15 89 8.0 12.9 0.00 0.03 0.00 87 1013.5
20260507011548 14 90 4.8 9.7 0.00 0.03 0.00 86 1013.6
20260507011033 14 93 3.2 4.8 0.00 0.03 0.00 86 1013.6
20260507010532 14 100 1.6 4.8 0.00 0.03 0.00 86 1013.6
20260507010056 15 113 0.0 4.8 0.00 0.03 0.00 86 1013.6
20260507005532 15 0 0.0 4.8 0.00 0.03 0.00 86 1013.6
20260507005031 15 113 0.0 4.8 0.00 0.03 0.00 86 1013.6
20260507004547 15 112 1.6 4.8 0.00 0.03 0.00 86 1013.6
20260507004031 15 0 1.6 4.8 0.00 0.03 0.00 85 1013.7
20260507003533 15 0 0.0 3.2 0.00 0.03 0.00 85 1013.6
20260507003042 15 0 0.0 6.4 0.00 0.03 0.00 85 1013.7
20260507002531 15 126 3.2 11.3 0.00 0.03 0.00 84 1013.7
20260507002031 15 122 4.8 14.5 0.00 0.03 0.00 85 1013.6
20260507001552 15 115 8.0 14.5 0.00 0.03 0.00 84 1013.7
20260507001030 15 91 4.8 6.4 0.00 0.03 0.00 84 1013.7
20260507000532 15 97 1.6 6.4 0.00 0.03 0.00 83 1013.7
20260507000049 15 116 1.6 6.4 0.00 0.03 0.00 83 1013.8
20260506235531 15 107 3.2 6.4 0.00 0.03 0.00 82 1013.8
20260506235031 15 101 3.2 6.4 0.00 0.03 0.00 82 1013.8
20260506234548 15 97 1.6 4.8 0.00 0.03 0.00 82 1013.8
20260506234031 15 92 1.6 6.4 0.00 0.03 0.00 81 1013.7
20260506233532 15 97 1.6 6.4 0.00 0.03 0.00 81 1013.8
20260506233100 15 125 0.0 6.4 0.00 0.03 0.00 81 1013.8
20260506232531 15 0 1.6 9.7 0.00 0.03 0.00 81 1013.7
20260506232031 15 138 3.2 9.7 0.00 0.03 0.00 81 1013.7
20260506231546 15 90 6.4 9.7 0.00 0.03 0.00 80 1013.7
20260506231031 15 123 3.2 11.3 0.00 0.03 0.00 80 1013.9
20260506230531 16 113 3.2 11.3 0.00 0.03 0.00 79 1013.9
20260506225533 16 105 1.6 6.4 0.00 0.03 0.00 79 1013.9
20260506225031 16 104 3.2 6.4 0.00 0.03 0.00 79 1013.9
20260506224549 16 121 3.2 6.4 0.00 0.03 0.00 79 1013.9
20260506224031 16 111 3.2 6.4 0.00 0.03 0.00 78 1014.0
20260506223534 16 117 3.2 9.7 0.00 0.03 0.00 78 1014.1
20260506223050 16 115 3.2 9.7 0.00 0.03 0.00 77 1014.0
20260506222532 16 121 1.6 4.8 0.00 0.03 0.00 77 1014.0
20260506222035 16 83 1.6 4.8 0.00 0.03 0.00 77 1014.1
20260506221558 16 118 0.0 6.4 0.00 0.03 0.00 77 1014.1
20260506221030 16 0 0.0 9.7 0.00 0.03 0.00 77 1014.0
20260506220534 16 82 4.8 9.7 0.00 0.03 0.00 76 1014.0
20260506220048 16 92 3.2 9.7 0.00 0.03 0.00 76 1013.9
20260506215531 16 93 4.8 9.7 0.00 0.03 0.03 76 1014.0
20260506215031 16 120 3.2 8.0 0.00 0.03 0.03 76 1014.0
20260506214546 16 155 1.6 8.0 0.00 0.03 0.03 77 1014.0
20260506214030 16 155 4.8 16.1 0.00 0.03 0.03 77 1013.9
20260506213531 16 130 8.0 16.1 0.00 0.03 0.03 77 1013.9
20260506213048 16 142 6.4 24.1 0.00 0.03 0.03 77 1013.9
20260506212531 16 113 11.3 29.0 0.00 0.03 0.03 77 1013.7
20260506212031 16 117 16.1 29.0 0.00 0.03 0.03 77 1013.6
20260506211604 16 115 19.3 29.0 0.00 0.03 0.03 77 1013.6
20260506211031 16 119 17.7 32.2 0.00 0.03 0.03 77 1013.7
20260506210531 16 114 16.1 32.2 0.00 0.03 0.03 77 1013.9
20260506210049 16 108 17.7 30.6 0.00 0.03 0.03 78 1013.9
20260506205535 16 99 14.5 30.6 0.00 0.03 0.03 80 1013.9
20260506205030 16 110 19.3 30.6 0.00 0.03 0.03 81 1013.9
20260506204548 15 123 12.9 19.3 0.00 0.03 0.03 82 1013.8
20260506204031 15 105 11.3 16.1 0.00 0.03 0.03 82 1013.9
20260506203531 15 106 8.0 16.1 0.00 0.03 0.03 82 1013.9
20260506203048 15 114 9.7 16.1 0.00 0.03 0.03 82 1013.8
20260506202531 16 86 8.0 16.1 0.00 0.03 0.03 81 1013.7
20260506202031 16 101 9.7 16.1 0.00 0.03 0.03 80 1013.6
20260506201549 16 110 8.0 17.7 0.00 0.03 0.03 78 1013.6
20260506201032 16 117 11.3 17.7 0.00 0.03 0.03 78 1013.6
20260506200531 16 125 9.7 16.1 0.00 0.03 0.03 77 1013.5
20260506200052 16 110 8.0 24.1 0.00 0.03 0.03 77 1013.4
20260506195531 16 119 16.1 24.1 0.00 0.03 0.03 77 1013.5
20260506195032 16 118 9.7 24.1 0.00 0.03 0.03 77 1013.4
20260506194553 16 113 11.3 24.1 0.00 0.03 0.03 77 1013.3
20260506194031 16 114 12.9 24.1 0.00 0.03 0.03 77 1013.3
20260506193530 16 125 12.9 20.9 0.00 0.03 0.03 77 1013.2
20260506193047 16 111 11.3 20.9 0.00 0.03 0.03 77 1013.2
20260506192530 16 117 12.9 19.3 0.00 0.03 0.03 77 1013.2
20260506192030 16 112 11.3 19.3 0.00 0.03 0.03 76 1013.2
20260506191546 16 106 9.7 25.7 0.00 0.03 0.03 76 1013.1
20260506191031 16 118 16.1 27.4 0.00 0.03 0.03 76 1013.1
20260506190532 16 119 19.3 27.4 0.00 0.03 0.03 76 1013.0
20260506190047 16 117 16.1 24.1 0.00 0.03 0.03 76 1012.9
20260506185530 16 107 12.9 22.5 0.00 0.03 0.03 75 1012.9
20260506185031 16 113 8.0 14.5 0.00 0.03 0.03 75 1012.9
20260506184549 16 112 8.0 20.9 0.00 0.03 0.03 75 1012.9
20260506184032 16 111 9.7 24.1 0.00 0.03 0.03 74 1012.8
20260506183531 16 110 11.3 29.0 0.00 0.03 0.03 74 1012.7
20260506183041 16 125 16.1 30.6 0.00 0.03 0.03 74 1012.6
20260506182530 16 112 16.1 30.6 0.00 0.03 0.03 74 1012.5
20260506182031 16 128 19.3 30.6 0.00 0.03 0.03 74 1012.3
20260506181548 16 110 19.3 33.8 0.00 0.03 0.03 74 1012.3
20260506181031 16 113 19.3 33.8 0.00 0.03 0.03 74 1012.4
20260506180531 16 109 19.3 37.0 0.00 0.03 0.03 73 1012.4
20260506180049 16 127 19.3 37.0 0.00 0.03 0.03 73 1012.4
20260506175530 16 121 19.3 37.0 0.00 0.03 0.03 73 1012.4
20260506175030 16 130 19.3 37.0 0.00 0.03 0.03 73 1012.3
20260506174548 16 122 16.1 33.8 0.00 0.03 0.03 73 1012.3
20260506174031 17 143 17.7 32.2 0.00 0.03 0.03 72 1012.3
20260506173531 17 121 17.7 30.6 0.00 0.03 0.03 73 1012.3
20260506173100 17 107 16.1 29.0 0.00 0.03 0.03 72 1012.2
20260506172531 17 103 14.5 41.8 0.00 0.03 0.03 72 1012.3
20260506172031 17 115 22.5 41.8 0.00 0.03 0.03 72 1012.3
20260506171551 17 109 20.9 35.4 0.00 0.03 0.03 72 1012.4
20260506171031 17 126 20.9 35.4 0.00 0.03 0.03 71 1012.3
20260506170531 17 134 22.5 37.0 0.00 0.03 0.03 72 1012.2
20260506170100 17 113 17.7 37.0 0.00 0.03 0.03 73 1012.2
20260506165532 17 111 19.3 35.4 0.00 0.03 0.03 73 1012.2
20260506165031 17 130 19.3 32.2 0.00 0.03 0.03 73 1012.3
20260506164606 17 121 19.3 32.2 0.00 0.03 0.03 73 1012.3
20260506164030 17 124 14.5 37.0 0.00 0.03 0.03 73 1012.3
20260506163530 17 124 20.9 37.0 0.00 0.03 0.03 72 1012.3
20260506163047 18 138 19.3 37.0 0.00 0.03 0.03 71 1012.4
20260506162530 18 106 20.9 37.0 0.00 0.03 0.03 71 1012.4
20260506162030 18 121 22.5 33.8 0.00 0.03 0.03 70 1012.3
20260506161551 18 128 16.1 38.6 0.00 0.03 0.03 70 1012.3
20260506161032 18 117 20.9 41.8 0.00 0.03 0.03 69 1012.3
20260506160531 18 118 24.1 41.8 0.00 0.03 0.03 69 1012.1
20260506160055 18 116 14.5 37.0 0.00 0.03 0.03 70 1012.3
20260506155532 18 128 17.7 41.8 0.00 0.03 0.03 69 1012.2
20260506155031 18 131 17.7 46.7 0.00 0.03 0.03 68 1012.2
20260506154554 18 134 22.5 46.7 0.00 0.03 0.03 68 1012.3
20260506154032 18 120 24.1 41.8 0.00 0.03 0.03 69 1012.2
20260506153531 18 111 20.9 37.0 0.00 0.03 0.03 69 1012.3
20260506153042 18 104 22.5 38.6 0.00 0.03 0.03 69 1012.3
20260506152534 18 114 22.5 38.6 0.00 0.03 0.03 69 1012.3
20260506152031 18 108 19.3 41.8 0.00 0.03 0.03 68 1012.3